Location: Unspecified
(0.0000°N, 0.0000°E)
Time: 14:44:33
(UTC+00:00)

HULIANWANG DIGUI-82 - Visible Passes

Search period start: 14 November 2025 00:00
Search period end: 24 November 2025 00:00
Orbit: 1140 x 1143 km, 86.5° (Epoch: 12 November)

Date Brightness Start Highest point End Pass type
(mag) Time Alt. Az. Time Alt. Az. Time Alt. Az.
14 Nov ? 03:44:49 10° SSE 03:51:44 59° E 03:58:36 10° N visible
15 Nov ? 03:12:38 10° SSE 03:18:44 32° E 03:24:49 10° NNE visible
15 Nov ? 05:01:25 10° SW 05:06:51 24° W 05:12:17 10° NW visible
16 Nov ? 02:41:33 10° SE 02:45:46 17° E 02:49:57 10° NE visible
16 Nov ? 04:27:15 10° SSW 04:33:53 45° W 04:40:30 10° NNW visible
17 Nov ? 03:53:51 10° S 04:00:54 82° W 04:07:55 10° N visible
18 Nov ? 03:21:03 10° SSE 03:27:55 56° E 03:34:44 10° NNE visible
18 Nov ? 05:13:08 10° WSW 05:16:01 13° W 05:18:54 10° WNW visible
19 Nov ? 02:48:56 10° SSE 02:54:56 30° E 02:59:38 15° NE visible
19 Nov ? 04:37:27 10° SW 04:43:03 26° W 04:47:41 13° NW visible
20 Nov ? 02:18:02 10° ESE 02:21:57 16° E 02:24:45 12° ENE visible
20 Nov ? 04:03:22 10° SSW 04:10:04 48° W 04:12:51 32° NW visible
21 Nov ? 03:30:02 10° S 03:37:06 86° W 03:38:27 62° N visible
22 Nov ? 02:57:18 10° SSE 03:04:06 53° E 03:04:18 53° E visible
22 Nov ? 04:48:54 10° WSW 04:52:12 14° W 04:52:27 14° W visible
23 Nov ? 02:25:16 10° SE 02:30:18 28° E 02:30:18 28° E visible
23 Nov ? 04:13:29 10° SW 04:18:28 27° WSW 04:18:28 27° WSW visible
